Regional Weather Roundup
Issued by NWS Newport/Morehead, NC

Current Version | Previous Version | Text Only | Print | Product List | Glossary On
Versions: 1 2 3 4 5 6 7 8 9 10 11 12 13 14 15 16 17 18 19 20 21 22 23 24 25 26 27 28 29 30 31 32 33 34 35 36 37 38 39 40 41 42 43 44 45 46 47 48 49 50
000
ASUS42 KMHX 241910
RWRMHX
WEATHER ROUNDUP FOR EASTERN NORTH CAROLINA
NATIONAL WEATHER SERVICE NEWPORT/MOREHEAD CITY NC
200 PM EST SAT JAN 24 2015

NOTE: "FAIR" INDICATES FEW OR NO CLOUDS BELOW 12,000 FEET
WITH NO SIGNIFICANT WEATHER AND/OR OBSTRUCTIONS TO VISIBILITY

NCZ015>017-031-032-045>047-102-103-242000-
NORTH COAST

CITY           SKY/WX    TMP DP  RH WIND       PRES   REMARKS
EDENTON        DRIZZLE   41  39  92 NW14G23   29.52R
ELIZABETH CITY CLOUDY    40  37  89 W21G28    29.49R
KITTY HAWK     CLOUDY    40  40 100 W14G23    29.43R
MANTEO         CLOUDY    39  39 100 NW15G23   29.46R

$$

NCZ045>047-081-094-103-104-242000-
CENTRAL COAST

CITY           SKY/WX    TMP DP  RH WIND       PRES   REMARKS
FRISCO         CLOUDY    44  43  96 W13G20    29.47R
SWANQUARTER    NOT AVBL

$$

NCZ095-097-098-100-101-242000-
SOUTHERN COAST

CITY           SKY/WX    TMP DP  RH WIND       PRES   REMARKS
BEAUFORT       CLOUDY    46  43  89 W24G30    29.55R
CEDAR ISLAND   NOT AVBL
JACKSONVILLE   CLOUDY    45  39  79 NW20G28   29.59R
PINEY ISLAND     N/A    N/A N/A N/A MISG      29.53R
WILMINGTON     CLOUDY    46  40  79 NW18G30   29.62R


$$

NCZ011>013-027>030-043-044-078>080-089-090>093-098-242000-
COASTAL PLAIN

CITY           SKY/WX    TMP DP  RH WIND       PRES   REMARKS
AHOSKIE        LGT RAIN  39  37  92 W6        29.55R
CLINTON        CLOUDY    44  42  92 W10       29.63S
ELIZABETHTOWN  CLOUDY    46  40  80 W13       29.64F
GOLDSBORO      MIX PCPN  43  43 100 W17G24    29.57S
GREENVILLE     PTSUNNY   43  41  93 NW9       29.61R
HAVELOCK       CLOUDY    45  41  86 W21G28    29.57R
KENANSVILLE    CLOUDY    43  41  91 W14       29.61S
KINSTON        PTSUNNY   45  41  87 W15G22    29.59R
NEW BERN       CLOUDY    46  39  76 W17G28    29.57R
RICHLANDS      CLOUDY    45  37  76 W12G20    29.60S
ROCKY MOUNT    CLOUDY    43  39  86 NW12      29.58R
WASHINGTON     CLOUDY    42  39  88 W10G20    29.56R
WHITEVILLE     CLOUDY    45  41  87 W7        29.65S

$$

AMZ130-135-150-152-154-156-158-170-250-252-270-ANZ085-086-088-633-658-670-242000-
MARINE OBSERVATIONS

STATION/POSITION TIME  TEMP    WIND        PRES    WAVE   SWELL
                       AIR SEA DIR/SP/G            HT/PER HT/PER
                 (UTC) (F)     (DEG/KT/KT) (MB)    (FT/S) (FT/S)
CHESAPEAKE LIGHT 1800   38     320/ 27/ 29  996.0
64 E VA BEACH    1900   43 53  320/ 21/ 27  993.1   10/11   8/11
DUCK             1900   40 45  310/ 16/ 20  995.7
2 E DUCK         1900      43                N/A     5/11   3/11
10 NE DUCK       1900      45                N/A     6/11   3/11
OREGON INLET     1900   41 48  290/ 13/ 17  996.4
13E OREGON INLT  1900      46                N/A     9/12   5/12
HATTERAS CG      1900   46 58  280/ 21/ 25  998.2
DIAMOND BUOY     1900   51 72  280/ 17/ 23  996.3   13/11  11/11
17 S OCRACOKE    NOT AVBL
CAPE LOOKOUT     1800   47     280/ 18/ 22  998.8
BEAUFORT LAB     1900   45 52  300/ 14/ 22  999.5
27 SE WRIGHTSVLE NOT AVBL
5 SE WRIGHTSVLE  1800   47 51  290/ 25/ 29 1001.5
225 S CAPE HAT   1825   68 73  280/ 29/ 35 1001.9   16/ 9
41 SE CHARLESTON 1900   55 70  290/ 29/ 35 1004.8   10/ 9

$$



USA.gov is the U.S. government's official web portal to all federal, state and local government web resources and services.